Time+07,TemperatureF,Dew PointF,Humidity,Sea Level PressureIn,VisibilityMPH,Wind Direction,Wind SpeedMPH,Gust SpeedMPH,PrecipitationIn,Events,Conditions,WindDirDegrees,DateUTC
1:00 AM,80,76,82,29.87,4,Calm,Calm,,,,Mist,,2013-01-25 18:00:00
1:00 AM,78.8,75.2,89,29.92,5.0,Calm,Calm,-,N/A,,Mostly Cloudy,0,2013-01-25 18:00:00
1:30 AM,78.8,73.4,83,29.92,5.0,Calm,Calm,-,N/A,,Mostly Cloudy,0,2013-01-25 18:30:00
2:00 AM,77.0,73.4,89,29.92,5.0,Calm,Calm,-,N/A,,Mostly Cloudy,0,2013-01-25 19:00:00
2:30 AM,77.0,73.4,89,29.89,5.0,Calm,Calm,-,N/A,,Mostly Cloudy,0,2013-01-25 19:30:00
3:00 AM,77.0,73.4,89,29.89,5.0,Calm,Calm,-,N/A,,Mostly Cloudy,0,2013-01-25 20:00:00
3:30 AM,77.0,73.4,89,29.89,5.0,Calm,Calm,-,N/A,,Mostly Cloudy,0,2013-01-25 20:30:00
4:00 AM,77.0,71.6,83,29.86,5.0,Variable,2.3,-,N/A,,Mostly Cloudy,0,2013-01-25 21:00:00
4:30 AM,78.8,69.8,74,29.86,5.0,East,4.6,-,N/A,,Mostly Cloudy,100,2013-01-25 21:30:00
5:00 AM,77.0,71.6,83,29.86,5.0,ENE,4.6,-,N/A,,Mostly Cloudy,70,2013-01-25 22:00:00
5:30 AM,78.8,71.6,78,29.86,5.0,East,4.6,-,N/A,,Mostly Cloudy,80,2013-01-25 22:30:00
6:00 AM,77.0,71.6,83,29.86,5.0,East,4.6,-,N/A,,Mostly Cloudy,80,2013-01-25 23:00:00
6:30 AM,78.8,69.8,74,29.86,5.0,East,10.4,-,N/A,,Mostly Cloudy,100,2013-01-25 23:30:00
7:00 AM,78,71,73,29.85,5,ENE,8.1,,,,Mist,70,2013-01-26 00:00:00
7:00 AM,80.6,68.0,65,29.86,5.0,East,11.5,-,N/A,,Scattered Clouds,90,2013-01-26 00:00:00
7:30 AM,80.6,68.0,65,29.89,5.0,East,11.5,-,N/A,,Scattered Clouds,100,2013-01-26 00:30:00
8:00 AM,82.4,68.0,62,29.89,5.0,East,12.7,-,N/A,,Scattered Clouds,90,2013-01-26 01:00:00
8:30 AM,82.4,68.0,62,29.92,5.0,East,11.5,-,N/A,,Scattered Clouds,100,2013-01-26 01:30:00
9:00 AM,82.4,68.0,62,29.92,5.0,East,12.7,-,N/A,,Scattered Clouds,100,2013-01-26 02:00:00
9:30 AM,84.2,69.8,62,29.92,4.3,East,15.0,-,N/A,,Scattered Clouds,90,2013-01-26 02:30:00
10:00 AM,84.2,68.0,58,29.92,4.3,East,13.8,-,N/A,,Scattered Clouds,90,2013-01-26 03:00:00
10:30 AM,84.2,68.0,58,29.92,5.0,East,16.1,-,N/A,,Scattered Clouds,90,2013-01-26 03:30:00
11:00 AM,86.0,68.0,55,29.89,5.0,East,15.0,-,N/A,,Scattered Clouds,80,2013-01-26 04:00:00
11:30 AM,86.0,69.8,58,29.89,5.0,ENE,9.2,-,N/A,,Scattered Clouds,70,2013-01-26 04:30:00
12:00 PM,87.8,68.0,52,29.89,5.0,East,12.7,-,N/A,,Scattered Clouds,90,2013-01-26 05:00:00
12:30 PM,87.8,69.8,55,29.86,5.0,ENE,9.2,-,N/A,,Scattered Clouds,60,2013-01-26 05:30:00
1:00 PM,88,70,47,29.86,5,ENE,11.5,,,,Haze,70,2013-01-26 06:00:00
1:00 PM,87.8,69.8,55,29.86,5.0,ENE,11.5,-,N/A,,Scattered Clouds,60,2013-01-26 06:00:00
1:30 PM,89.6,69.8,52,29.86,5.0,East,11.5,-,N/A,,Scattered Clouds,90,2013-01-26 06:30:00
2:00 PM,89.6,69.8,52,29.83,5.0,ENE,10.4,-,N/A,,Scattered Clouds,60,2013-01-26 07:00:00
2:30 PM,87.8,69.8,55,29.83,5.0,East,9.2,-,N/A,,Scattered Clouds,90,2013-01-26 07:30:00
3:00 PM,89.6,69.8,52,29.80,5.0,East,9.2,-,N/A,,Scattered Clouds,100,2013-01-26 08:00:00
3:30 PM,89.6,68.0,49,29.80,5.0,ESE,78.3,-,N/A,,Scattered Clouds,110,2013-01-26 08:30:00
4:00 PM,87.8,68.0,52,29.80,5.6,ESE,8.1,-,N/A,,Scattered Clouds,110,2013-01-26 09:00:00
4:30 PM,87.8,73.4,62,29.80,5.6,NNW,3.5,-,N/A,,Scattered Clouds,340,2013-01-26 09:30:00
5:00 PM,86.0,73.4,66,29.83,5.6,NW,6.9,-,N/A,,Scattered Clouds,320,2013-01-26 10:00:00
5:30 PM,86.0,73.4,66,29.83,5.6,NNW,3.5,-,N/A,,Scattered Clouds,330,2013-01-26 10:30:00
6:00 PM,84.2,71.6,66,29.83,5.0,NNW,4.6,-,N/A,,Scattered Clouds,330,2013-01-26 11:00:00
6:30 PM,82.4,73.4,74,29.86,5.0,NW,4.6,-,N/A,,Scattered Clouds,320,2013-01-26 11:30:00
7:00 PM,85,74,64,29.81,5,NNW,4.6,,,,Mist,330,2013-01-26 12:00:00
7:00 PM,82.4,73.4,74,29.86,5.0,NNW,3.5,-,N/A,,Scattered Clouds,340,2013-01-26 12:00:00
7:30 PM,82.4,71.6,70,29.86,5.0,North,3.5,-,N/A,,Scattered Clouds,360,2013-01-26 12:30:00
8:00 PM,82.4,73.4,74,29.86,5.0,NNW,3.5,-,N/A,,Scattered Clouds,330,2013-01-26 13:00:00
8:30 PM,80.6,73.4,79,29.89,5.0,Variable,2.3,-,N/A,,Scattered Clouds,0,2013-01-26 13:30:00
9:00 PM,80.6,73.4,79,29.89,5.0,Calm,Calm,-,N/A,,Scattered Clouds,0,2013-01-26 14:00:00
9:30 PM,80.6,73.4,79,29.92,5.0,Variable,1.2,-,N/A,,Scattered Clouds,0,2013-01-26 14:30:00
10:00 PM,80.6,73.4,79,29.92,5.0,Calm,Calm,-,N/A,,Mostly Cloudy,0,2013-01-26 15:00:00
10:30 PM,82.4,73.4,74,29.92,5.0,ESE,5.8,-,N/A,,Mostly Cloudy,110,2013-01-26 15:30:00
11:00 PM,82.4,69.8,66,29.92,5.0,ESE,6.9,-,N/A,,Mostly Cloudy,110,2013-01-26 16:00:00
11:30 PM,80.6,69.8,70,29.92,5.0,East,5.8,-,N/A,,Mostly Cloudy,80,2013-01-26 16:30:00